VIR3 EGLL-KJFK

Flight info

Callsign VIR3
Flight time N/A
Altitude 36000
Route CPT L9 DIDZA N14 OKTAD DCT MEDOG DCT VATRY DCT DOGAL/M082F370 DCT 54N020W 53N030W 5130N04000W 50N050W DCT ELSIR/N0473F380 N406A TOPPS DCT ENE PARCH4
Aircraft A346/H-SDE2E3FGHIJ3J4J5M1RWXY/LB1D1

Departure

Time 2026-05-07 17:48
Airport London Heathrow Airport (EGLL)

Arrival

Time N/A
Airport John F. Kennedy International Airport (KJFK)
Time Latitude Longitude Altitude Speed Heading
2026-05-07 17:47 51.35201 -0.44746 5699 ft 269 kts 221°
2026-05-07 17:48 51.33983 -0.46450 5960 ft 271 kts 221°
2026-05-07 17:48 51.32687 -0.48259 5983 ft 271 kts 221°
2026-05-07 17:48 51.31481 -0.49934 5992 ft 272 kts 221°
2026-05-07 17:48 51.30349 -0.51506 5986 ft 272 kts 221°
2026-05-07 17:49 51.29092 -0.53251 5993 ft 272 kts 221°
2026-05-07 17:49 51.27855 -0.54978 5992 ft 272 kts 223°
2026-05-07 17:49 51.26879 -0.56985 5965 ft 272 kts 246°
2026-05-07 17:49 51.26498 -0.59471 6121 ft 281 kts 271°
2026-05-07 17:50 51.26812 -0.62042 6745 ft 279 kts 295°
2026-05-07 17:50 51.27632 -0.64410 7438 ft 276 kts 303°
2026-05-07 17:50 51.28561 -0.66596 7855 ft 277 kts 305°
2026-05-07 17:50 51.29543 -0.68778 8048 ft 277 kts 306°
2026-05-07 17:51 51.30517 -0.70898 8036 ft 277 kts 306°
2026-05-07 17:51 51.31501 -0.73031 8042 ft 277 kts 306°
2026-05-07 17:51 51.32488 -0.75166 8051 ft 277 kts 306°
2026-05-07 17:51 51.33440 -0.77222 8040 ft 277 kts 306°
2026-05-07 17:52 51.34411 -0.79320 8030 ft 278 kts 306°
2026-05-07 17:52 51.35474 -0.81614 8031 ft 279 kts 305°
2026-05-07 17:52 51.36607 -0.84147 8135 ft 285 kts 304°
2026-05-07 17:52 51.37749 -0.86738 8829 ft 286 kts 304°
2026-05-07 17:53 51.38883 -0.89318 9686 ft 284 kts 303°
2026-05-07 17:53 51.40012 -0.91892 10336 ft 287 kts 303°
2026-05-07 17:53 51.40779 -0.93641 10610 ft 296 kts 303°
2026-05-07 17:53 51.42429 -0.97402 10997 ft 317 kts 303°
2026-05-07 17:54 51.43736 -1.00381 11283 ft 333 kts 303°
2026-05-07 17:54 51.45101 -1.03495 11566 ft 349 kts 303°
2026-05-07 17:54 51.46535 -1.06768 11853 ft 364 kts 303°
2026-05-07 17:54 51.47579 -1.09151 12059 ft 374 kts 303°
2026-05-07 17:55 51.49080 -1.12583 12549 ft 382 kts 303°
2026-05-07 17:55 51.51100 -1.17203 13484 ft 385 kts 303°
2026-05-07 17:55 51.52607 -1.20660 14070 ft 389 kts 303°
2026-05-07 17:55 51.54153 -1.24217 14636 ft 393 kts 303°
2026-05-07 17:56 51.55221 -1.26677 14894 ft 394 kts 303°
2026-05-07 17:56 51.56807 -1.30335 15250 ft 400 kts 303°
2026-05-07 17:56 51.58383 -1.33972 15940 ft 400 kts 303°
2026-05-07 17:56 51.59964 -1.37670 16624 ft 400 kts 301°
2026-05-07 17:57 51.61450 -1.41546 17232 ft 402 kts 298°
2026-05-07 17:57 51.62802 -1.45507 17832 ft 405 kts 296°
2026-05-07 17:57 51.64132 -1.49519 18424 ft 407 kts 296°
2026-05-07 17:57 51.65465 -1.53558 18947 ft 410 kts 296°
2026-05-07 17:58 51.66701 -1.57298 19400 ft 412 kts 296°
2026-05-07 17:58 51.68057 -1.61389 19909 ft 415 kts 296°
2026-05-07 17:58 51.69328 -1.65569 20397 ft 417 kts 291°
2026-05-07 17:58 51.70310 -1.70133 20920 ft 418 kts 284°
2026-05-07 17:59 51.70916 -1.74823 21425 ft 419 kts 277°
2026-05-07 17:59 51.71279 -1.79489 21914 ft 421 kts 275°
2026-05-07 17:59 51.71670 -1.84224 22382 ft 425 kts 277°
2026-05-07 17:59 51.72225 -1.88983 22862 ft 428 kts 281°
2026-05-07 18:00 51.72917 -1.93825 23347 ft 431 kts 282°
2026-05-07 18:00 51.73615 -1.98549 23764 ft 434 kts 282°
2026-05-07 18:00 51.74319 -2.03288 24116 ft 438 kts 282°
2026-05-07 18:00 51.75027 -2.08061 24507 ft 440 kts 282°
2026-05-07 18:01 51.75735 -2.12856 24897 ft 442 kts 282°
2026-05-07 18:01 51.76445 -2.17686 25299 ft 444 kts 282°
2026-05-07 18:01 51.77158 -2.22552 25678 ft 446 kts 282°
2026-05-07 18:01 51.77875 -2.27467 26057 ft 448 kts 281°
2026-05-07 18:02 51.79286 -2.37186 26819 ft 452 kts 282°
2026-05-07 18:02 51.80000 -2.42124 27245 ft 453 kts 281°
2026-05-07 18:02 51.80718 -2.47100 27618 ft 455 kts 281°
2026-05-07 18:03 51.81438 -2.52121 27918 ft 458 kts 281°
2026-05-07 18:03 51.82145 -2.57099 28372 ft 458 kts 281°
2026-05-07 18:03 51.82841 -2.62173 28929 ft 455 kts 281°
2026-05-07 18:03 51.83506 -2.67090 29488 ft 453 kts 281°
2026-05-07 18:04 51.84179 -2.72093 30004 ft 452 kts 280°
2026-05-07 18:04 51.84844 -2.77047 30425 ft 451 kts 280°
2026-05-07 18:04 51.85506 -2.81989 30883 ft 449 kts 280°
2026-05-07 18:04 51.86158 -2.86862 31299 ft 448 kts 280°
2026-05-07 18:05 51.86824 -2.91863 31721 ft 446 kts 280°
2026-05-07 18:05 51.87478 -2.96773 32111 ft 445 kts 280°
2026-05-07 18:05 51.88139 -3.01760 32461 ft 446 kts 280°
2026-05-07 18:05 51.88788 -3.06683 32811 ft 445 kts 280°
2026-05-07 18:06 51.89458 -3.11777 33203 ft 444 kts 279°
2026-05-07 18:06 51.90092 -3.16610 33590 ft 442 kts 279°
2026-05-07 18:06 51.90730 -3.21499 33969 ft 441 kts 279°
2026-05-07 18:06 51.91377 -3.26469 34282 ft 440 kts 279°
2026-05-07 18:07 51.92001 -3.31290 34512 ft 440 kts 279°
2026-05-07 18:07 51.92639 -3.36237 34676 ft 443 kts 279°
2026-05-07 18:07 51.93270 -3.41143 34845 ft 445 kts 279°
2026-05-07 18:07 51.93935 -3.45926 35026 ft 447 kts 282°
2026-05-07 18:08 51.94745 -3.50677 35168 ft 450 kts 284°
2026-05-07 18:08 51.95712 -3.55389 35332 ft 453 kts 288°
2026-05-07 18:08 51.96854 -3.60099 35508 ft 455 kts 290°
2026-05-07 18:08 51.98159 -3.64737 35695 ft 457 kts 294°
2026-05-07 18:09 51.99596 -3.69320 35876 ft 459 kts 295°
2026-05-07 18:09 52.01083 -3.73954 35997 ft 460 kts 295°
2026-05-07 18:09 52.02574 -3.78590 35997 ft 460 kts 295°
2026-05-07 18:10 52.05506 -3.87744 36001 ft 460 kts 295°
2026-05-07 18:10 52.08393 -3.96814 36004 ft 461 kts 295°
2026-05-07 18:11 52.11243 -4.05817 36004 ft 462 kts 294°
2026-05-07 18:11 52.14144 -4.15020 36000 ft 462 kts 294°
2026-05-07 18:12 52.17071 -4.24343 36000 ft 462 kts 294°
2026-05-07 18:12 52.19981 -4.33646 36000 ft 462 kts 294°
2026-05-07 18:13 52.22901 -4.43012 35997 ft 461 kts 294°
2026-05-07 18:13 52.25822 -4.52423 36000 ft 464 kts 294°
2026-05-07 18:14 52.28760 -4.61932 35999 ft 472 kts 294°
2026-05-07 18:14 52.31718 -4.71535 35995 ft 473 kts 294°
2026-05-07 18:15 52.34673 -4.81163 35995 ft 473 kts 294°
2026-05-07 18:15 52.37625 -4.90822 35994 ft 473 kts 294°
2026-05-07 18:16 52.40547 -5.00424 35999 ft 474 kts 294°
2026-05-07 18:16 52.43475 -5.10083 35998 ft 474 kts 294°
2026-05-07 18:17 52.46392 -5.19744 35993 ft 474 kts 293°
2026-05-07 18:17 52.49309 -5.29449 35992 ft 474 kts 293°
2026-05-07 18:18 52.52215 -5.39156 35990 ft 474 kts 293°
2026-05-07 18:18 52.54994 -5.48853 35984 ft 472 kts 290°
2026-05-07 18:19 52.57237 -5.58980 35985 ft 471 kts 285°
2026-05-07 18:19 52.59238 -5.69172 35983 ft 470 kts 285°
2026-05-07 18:20 52.61257 -5.79538 35983 ft 470 kts 285°
2026-05-07 18:20 52.63241 -5.89747 35984 ft 470 kts 285°
2026-05-07 18:21 52.65228 -6.00016 35974 ft 470 kts 285°
2026-05-07 18:21 52.67209 -6.10313 35972 ft 470 kts 285°
2026-05-07 18:22 52.69180 -6.20597 35971 ft 470 kts 285°
2026-05-07 18:22 52.71159 -6.30983 35961 ft 470 kts 285°
2026-05-07 18:23 52.73110 -6.41276 35963 ft 470 kts 284°
2026-05-07 18:23 52.75056 -6.51604 35962 ft 470 kts 284°
2026-05-07 18:24 52.76974 -6.61842 35964 ft 469 kts 284°
2026-05-07 18:24 52.78897 -6.72160 35951 ft 469 kts 284°
2026-05-07 18:25 52.79854 -6.77313 35951 ft 469 kts 284°